Home > Weather > Mexico City > Past weeks

Flag for Mexico Past Weather in Mexico City, Ciudad de México, Mexico — Yesterday and Last 2 Weeks

Now
72 °F

Broken clouds.


Feels Like: 77 °F
Forecast: 57 / 68 °F
Wind: 5 mph from Northeast

Location: Mexico City / Licenci

Current Time: Jul 1, 2016 at 3:39:52 PM

Latest Report: Jul 1, 2016 at 2:47 PM


Visibility: 5 mi

Pressure: 30.34 "Hg (23.41 "Hg at 2241m altitude)

Humidity: 53%

Dew Point: 54 °F

Location of Mexico CityLocation

Past Weather in Mexico City — Graph

°F

Mexico City Temperature Yesterday

Maximum temperature yesterday: 75 °F (at 2:47 PM)
Minimum temperature yesterday: 55 °F (at 6:46 AM)
Average temperature yesterday: 65 °F

High & Low Weather Summary for the Past Weeks

 TemperatureHumidityPressure
High79 °F (Jun 16, 3:48 PM)94% (Jun 21, 1:55 AM)30.42 "Hg (Jun 21, 1:55 AM)
Low55 °F (Jun 23, 4:45 AM)29% (Jun 28, 4:49 PM)29.72 "Hg (Jun 16, 3:48 PM)
Average63 °F66%30.21 "Hg
* Reported Jun 16 2:47 PM — Jul 1 1:52 PM, Mexico City, Weather by CustomWeather, © 2016

Note: Actual official high and low records may vary slightly from our data, if they occured in-between our weather recording intervals... More about our weather records

Advertising

Mexico City Weather History for the Previous 24 Hours

Scroll right to see more
 ConditionsComfort  
Time TempWeatherWind HumidityBarometerVisibility
1:52 PM
Fri, Jul 1
70 °FBroken clouds.5 mph53%30.36 "Hg5 mi
12:54 PM68 °FPartly sunny.3 mph56%29.85 "Hg5 mi
11:46 AM66 °FBroken clouds.No wind64%30.41 "Hg5 mi
10:54 AM64 °FBroken clouds.3 mph68%30.41 "Hg5 mi
9:49 AM63 °FMostly cloudy.3 mph73%29.93 "Hg5 mi
9:26 AM61 °FMostly cloudy.3 mph77%30.41 "Hg5 mi
8:48 AM59 °FLight rain. Cloudy.3 mph88%30.41 "Hg4 mi
7:52 AM59 °FLight rain. Overcast.No wind88%30.39 "Hg2 mi
6:51 AM59 °FLight rain. Mostly cloudy.No wind88%29.87 "Hg4 mi
5:49 AM61 °FLight rain. Mostly cloudy.5 mph77%30.35 "Hg6 mi
4:48 AM61 °FMostly cloudy.No wind83%30.34 "Hg7 mi
3:50 AM61 °FMostly cloudy.5 mph83%29.81 "Hg7 mi
2:54 AM61 °FPassing clouds.3 mph77%30.35 "Hg8 mi
1:55 AM61 °FOvercast.5 mph77%30.35 "Hg8 mi
12:56 AM63 °FPartly cloudy.8 mph73%29.85 "Hg10 mi
11:47 PM
Thu, Jun 30
64 °FPartly cloudy.8 mph68%30.37 "Hg10 mi
10:55 PM64 °FPassing clouds.5 mph64%30.37 "Hg12 mi
9:54 PM64 °FPartly cloudy.7 mph68%29.87 "Hg10 mi
8:48 PM64 °FCloudy.7 mph68%30.31 "Hg8 mi
7:56 PM64 °FMostly cloudy.5 mph73%30.29 "Hg8 mi
5:48 PM73 °FPartly sunny.14 mph41%30.24 "Hg7 mi
4:49 PM73 °FPartly sunny.6 mph41%30.26 "Hg7 mi
3:46 PM73 °FPartly sunny.6 mph41%29.79 "Hg5 mi
Weather by CustomWeather, © 2016

See weather overviewHow to use our weather pages